Regional Weather Roundup
Issued by NWS

Home | Current Version | Previous Version | Graphics & Text | Print | Product List | Glossary On
Versions: 1 2 3 4 5 6 7 8 9 10 11 12 13 14 15 16 17 18 19 20 21 22 23 24 25 26 27 28 29 30 31 32 33 34 35 36 37 38 39 40 41 42 43 44 45 46 47 48 49 50
000
ASUS43 KLSX 222007
RWRMO

WEATHER SUMMARY FOR MISSOURI
NATIONAL WEATHER SERVICE SPRINGFIELD MO
300 PM CDT TUE JUL 22 2014

NOTE: "FAIR" INDICATES FEW OR NO CLOUDS BELOW 12,000 FEET WITH NO
       SIGNIFICANT WEATHER AND/OR OBSTRUCTIONS TO VISIBILITY.
       CURRENT SKY AND/OR WEATHER CONDITIONS ARE NOT AVAILABLE FOR
       CHILLICOTHE AND FARMINGTON.

MOZ001>031-035>038-043-044-053-054-222100-
...NORTHERN AND WESTERN MISSOURI...

CITY           SKY/WX    TMP DP  RH WIND       PRES   REMARKS
KANSAS CTY INT PTSUNNY   93  76  57 SW12      30.02S HX 105
KANSAS C DTWN  PTSUNNY   98  72  42 SW9       29.99S HX 107
LEE`S SUMMIT   PTSUNNY   93  75  55 SW9       30.02F HX 104
ST JOSEPH      PTSUNNY   93  78  61 S12       29.99S HX 108
CHILLICOTHE      N/A     92  79  65 S8        30.00S HX 108
KIRKSVILLE     PTSUNNY   91  79  67 SW12G17   30.00F HX 107

$$
MOZ066>068-077>081-088>096-101>105-222100-
...SOUTHWEST MISSOURI...

CITY           SKY/WX    TMP DP  RH WIND       PRES   REMARKS
SPRINGFIELD    SUNNY     91  73  55 CALM      30.08F HX  99
JOPLIN         MOSUNNY   94  73  50 SW9       30.06F HX 103

$$
MOZ032>034-039>042-045>050-055>058-069>072-222100-
...CENTRAL MISSOURI...

CITY           SKY/WX    TMP DP  RH WIND       PRES   REMARKS
COLUMBIA       PTSUNNY   92  77  61 SW13      30.01F HX 105
JEFFERSON CITY PTSUNNY   90  76  63 S6        30.00F HX 101
ROLLA          PTSUNNY   91  71  51 S8        30.04F HX  97
SEDALIA        MOSUNNY   93  77  59 S10       30.04F HX 107
WHITEMAN AFB   MOSUNNY   92  76  58 SW8       30.02F HX 104
OSAGE BEACH    MOSUNNY   93  75  55 SW6       30.03F HX 104

$$
MOZ051-052-059>065-222100-
...EAST CENTRAL MISSOURI...

CITY           SKY/WX    TMP DP  RH WIND       PRES   REMARKS
ST LOUIS INTL  CLOUDY    92  72  51 S10       29.99F HX  99
SPIRIT OF STL  CLOUDY    89  72  56 VRB7      29.98F HX  96
ST CHARLES     CLOUDY    90  72  55 S13       29.97F HX  97

$$
MOZ072>076-082>087-097>100-106>115-222100-
...SOUTH CENTRAL AND SOUTHEAST MISSOURI...

CITY           SKY/WX    TMP DP  RH WIND       PRES   REMARKS
CAPE GIRARDEAU SUNNY     87  68  52 SW6       30.07F HX  90
FARMINGTON     MOSUNNY   86  70  58 SE8       30.10F HX  90
POPLAR BLUFF   SUNNY     86  65  49 VRB6      30.07F
WEST PLAINS    CLOUDY    86  71  60 VRB3      30.11F HX  91

$$



USA.gov is the U.S. government's official web portal to all federal, state and local government web resources and services.